Location: ????????
(54.6123°N, 39.2099°E)
Time: 15:00:54
(UTC+00:00)

ARIANE 6 FM1 Upper Stage - Pass Details

Date: 19 May 2025
Orbit: 530 x 611 km, 62.0° (Epoch: 20 June)

Event Time Altitude Azimuth Distance (km) Brightness Sun altitude
Rises 18:43:46 0° 222° (SW) 2,664 6.0 -8.3°
Reaches altitude 10° 18:45:57 10° 219° (SW) 1,779 5.1 -8.5°
Maximum altitude 18:49:54 65° 138° (SE) 591 2.5 -8.9°
Drops below altitude 10° 18:53:56 10° 56° (ENE) 1,810 5.3 -9.2°
Sets 18:56:10 0° 54° (NE) 2,715 6.2 -9.4°
